STARLINK-33778 (63877 NORAD) Tracking and Keplerian Element Data

This shows tracking and keplerian element data for the satellite.

Feedback or suggestion? Click here.




ElementValue
Catalog63877
NameSTARLINK-33778
Epoch Orbit573
Epoch Day354.00002315
Epoch Year2025
RAAN75.4285
Inclination70.0017
Eccentricity0.0003543
Argument of Perigee269.243
Mean Anonmoly147.5272
Mean Motion14.9831454
Decay Rate0.00022305
L11 63877U 25094P 25354.00002315 .00022305 00000+0 18719-2 0 9990
L22 63877 70.0017 75.4285 0003543 269.2430 147.5272 14.98314540 5732



Live tracking and technical data element details for STARLINK-33778 (NORAD 63877). STARLINK-33778 can be tracked NOW for your location showing map with azimuth and elevation plus other details from your city location.







IsCatalogInMostPopularTable: catalog: 63877, numindb: 8
Update: records affected: 1



GetName: 63877 STARLINK-33778

Hit Count: updated at: Mon, 11 May 2026 11:51:53 GMT